Location: Hartford
(41.7640°N, 72.6860°W)
Time: 02:03:15
(UTC-05:00)

ISS - Visible Passes

Search period start: 31 January 2015 00:00
Search period end: 10 February 2015 00:00
Orbit: 400 x 408 km, 51.6° (Epoch: 30 January)

Date Brightness Start Highest point End Pass type
(mag) Time Alt. Az. Time Alt. Az. Time Alt. Az.
03 Feb -0.6 19:22:49 10° SW 19:23:30 15° SW 19:23:30 15° SW visible
04 Feb -2.2 18:30:52 10° SSW 18:33:40 27° SE 18:33:44 27° SE visible
05 Feb -1.2 17:39:33 10° SSE 17:41:23 14° SE 17:43:18 10° E visible
05 Feb -2.0 19:14:17 10° WSW 19:16:32 39° W 19:16:32 39° W visible
06 Feb -3.3 18:21:50 10° SW 18:25:04 66° SE 18:26:32 29° ENE visible
06 Feb 0.3 19:59:03 10° WNW 19:59:11 11° WNW 19:59:11 11° WNW visible
07 Feb -2.0 19:06:05 10° W 19:09:04 33° NNW 19:09:04 33° NNW visible
08 Feb -2.8 18:13:14 10° WSW 18:16:26 54° NNW 18:18:50 16° NE visible
08 Feb 0.0 19:51:10 10° NW 19:51:29 11° NW 19:51:29 11° NW visible
09 Feb -1.4 18:58:01 10° WNW 19:00:38 21° NNW 19:01:10 20° N visible
